Kiama Observation History
Time Wind Speed Temp Pressure Rel. Hum Rain
05/10:30pm SSW 5-7 kts 12.4°c n/a 68% 0.0mm
05/10:00pm SSW 6-9 kts 12.6°c n/a 68% 0.0mm
05/09:30pm SW 6-8 kts 12.8°c n/a 68% 0.0mm
05/09:00pm SW 6-8 kts 13.0°c n/a 68% 0.0mm
05/08:30pm SW 4-6 kts 12.6°c n/a 68% 0.0mm
05/08:00pm SW 4-7 kts 13.3°c n/a 66% 0.0mm
05/07:30pm SW 3-6 kts 12.5°c n/a 66% 0.0mm
05/07:00pm SW 2-4 kts 12.9°c n/a 66% 0.0mm
05/06:30pm WSW 4-5 kts 12.5°c n/a 64% 0.0mm
05/06:00pm SW 3-4 kts 12.5°c n/a 66% 0.0mm
05/05:30pm W 6-7 kts 12.9°c n/a 65% 0.0mm
05/05:00pm NNW 2-3 kts 14.6°c n/a 54% 0.0mm
05/04:30pm N 3-4 kts 15.3°c n/a 53% 0.0mm
05/04:00pm NNE 2-3 kts 16.7°c n/a 49% 0.0mm
05/03:30pm NNE 3-5 kts 17.1°c n/a 49% 0.0mm
05/03:00pm NNE 4-5 kts 17.3°c n/a 49% 0.0mm
05/02:30pm NNE 4-5 kts 17.5°c n/a 47% 0.0mm
05/02:00pm NNE 4-6 kts 17.4°c n/a 45% 0.0mm
05/01:30pm NNE 5-6 kts 17.3°c n/a 45% 0.0mm
05/01:00pm NNE 5-6 kts 17.4°c n/a 45% 0.0mm
05/12:30pm NNE 5-6 kts 17.5°c n/a 44% 0.0mm
05/12:00pm NE 3-4 kts 17.5°c n/a 46% 0.0mm
05/11:30am NNE 3-5 kts 17.0°c n/a 42% 0.0mm
05/11:00am NNE 4-6 kts 16.9°c n/a 50% 0.0mm
05/10:30am N 4-5 kts 16.6°c n/a 54% 0.0mm
05/10:00am NNW 3-4 kts 15.7°c n/a 52% 0.0mm
05/09:30am WNW 1-4 kts 14.9°c n/a 58% 0.0mm
05/09:00am W 4-5 kts 13.1°c n/a 61% 0.0mm
05/08:30am W 4-5 kts 12.1°c n/a 65% 0.0mm
05/08:00am W 6-7 kts 10.5°c n/a 68% 0.0mm
05/07:30am W 6-7 kts 8.9°c n/a 71% 0.0mm
05/07:00am W 6-7 kts 9.2°c n/a 71% 0.0mm
05/06:30am WSW 6-7 kts 8.5°c n/a 74% 0.0mm
05/06:00am WSW 5-6 kts 8.9°c n/a 73% 0.0mm
05/05:30am WSW 5-6 kts 9.3°c n/a 74% 0.0mm
05/05:00am WSW 5-6 kts 8.8°c n/a 75% 0.0mm
05/04:30am WSW 5 kts 9.0°c n/a 75% 0.0mm
05/04:00am WSW 5-6 kts 9.3°c n/a 75% 0.0mm
05/03:30am WSW 5-6 kts 9.0°c n/a 74% 0.0mm
05/03:00am WSW 5-7 kts 9.5°c n/a 74% 0.0mm
05/02:30am W 5-6 kts 9.9°c n/a 73% 0.0mm
05/02:00am W 5-7 kts 9.6°c n/a 72% 0.0mm
05/01:30am W 6-8 kts 9.8°c n/a 72% 0.0mm
05/01:00am W 4-7 kts 9.7°c n/a 72% 0.0mm
05/12:30am W 5-7 kts 9.8°c n/a 71% 0.0mm
05/12:00am W 5-7 kts 10.0°c n/a 71% 0.0mm
Time Wind Speed Temp Pressure Rel. Hum Rain
04/11:30pm W 5-7 kts 9.9°c n/a 71% 0.0mm
04/11:00pm W 5-7 kts 9.9°c n/a 70% 0.0mm
04/10:30pm W 4-5 kts 10.1°c n/a 70% 0.0mm
04/10:00pm WSW 4-5 kts 9.9°c n/a 70% 0.0mm
04/09:30pm WSW 3-5 kts 10.0°c n/a 69% 0.0mm
04/09:00pm WSW 4-5 kts 10.7°c n/a 69% 0.0mm
04/08:30pm WSW 4-5 kts 10.5°c n/a 68% 0.0mm
04/08:00pm SW 2-4 kts 11.4°c n/a 68% 0.0mm
04/07:30pm SSW 5-7 kts 12.6°c n/a 69% 0.0mm
04/07:00pm SW 4-5 kts 11.9°c n/a 68% 0.0mm
04/06:30pm WSW 4-5 kts 11.9°c n/a 65% 0.0mm
04/06:00pm SSW 5-7 kts 13.2°c n/a 67% 0.0mm
04/05:30pm SSW 6-8 kts 14.0°c n/a 63% 0.0mm
04/05:00pm S 9-11 kts 14.4°c n/a 61% 0.0mm
04/04:30pm S 9-11 kts 14.7°c n/a 60% 0.0mm
04/04:00pm S 11-14 kts 15.2°c n/a 59% 0.0mm
04/03:30pm S 11-14 kts 15.3°c n/a 57% 0.0mm
04/03:00pm S 12-15 kts 15.6°c n/a 58% 0.0mm
04/02:30pm SSE 11-14 kts 15.7°c n/a 54% 0.0mm
04/02:00pm S 11-17 kts 15.5°c n/a 50% 0.0mm
04/01:30pm S 11-16 kts 15.5°c n/a 51% 0.0mm
04/01:00pm S 9-13 kts 15.3°c n/a 52% 0.0mm
04/12:30pm S 11-15 kts 15.1°c n/a 53% 0.0mm
04/12:00pm S 12-17 kts 14.9°c n/a 53% 0.0mm
04/11:30am SSW 10-17 kts 15.3°c n/a 56% 0.0mm
04/11:00am S 13-18 kts 14.4°c n/a 55% 0.0mm
04/10:30am S 14-18 kts 14.0°c n/a 53% 0.0mm
04/10:00am S 15-23 kts 13.7°c n/a 53% 0.0mm
04/09:30am S 12-17 kts 13.8°c n/a 57% 0.0mm
04/09:00am S 14-21 kts 13.1°c n/a 56% 0.0mm
04/08:30am SSW 11-15 kts 12.8°c n/a 53% 0.0mm
04/08:00am SSW 10-16 kts 12.7°c n/a 56% 0.0mm
04/07:30am SSW 9-13 kts 12.3°c n/a 58% 0.0mm
04/07:00am SSW 14-18 kts 12.3°c n/a 56% 0.0mm
04/06:30am SSW 13-17 kts 12.3°c n/a 61% 0.0mm
04/06:00am SSW 14-19 kts 12.5°c n/a 59% 0.0mm
04/05:30am SSW 13-19 kts 12.7°c n/a 61% 0.0mm
04/05:00am SSW 13-17 kts 12.6°c n/a 58% 0.0mm
04/04:30am SSW 14-19 kts 12.8°c n/a 60% 0.0mm
04/04:00am SSW 14-20 kts 12.9°c n/a 59% 0.0mm
04/03:30am SSW 15-20 kts 13.0°c n/a 58% 0.0mm
04/03:00am SSW 16-23 kts 12.9°c n/a 58% 0.0mm
04/02:30am SSW 15-20 kts 12.8°c n/a 60% 0.0mm
04/02:00am SSW 16-23 kts 12.9°c n/a 61% 0.0mm
04/01:30am SSW 16-21 kts 12.9°c n/a 61% 0.0mm
04/01:00am SSW 16-21 kts 13.1°c n/a 60% 0.0mm
04/12:30am SSW 14-19 kts 13.3°c n/a 64% 0.0mm
04/12:00am SSW 13-18 kts 13.3°c n/a 64% 0.0mm
Time Wind Speed Temp Pressure Rel. Hum Rain
03/11:30pm SSW 13-17 kts 13.3°c n/a 64% 0.0mm
03/11:00pm SSW 12-15 kts 13.2°c n/a 64% 0.0mm
03/10:30pm SSW 11-16 kts 13.4°c n/a 63% 0.0mm
03/10:00pm SSW 13-18 kts 13.6°c n/a 60% 0.0mm
03/09:30pm SSW 12-18 kts 13.5°c n/a 62% 0.0mm
03/09:00pm SSW 12-17 kts 13.6°c n/a 63% 0.0mm
03/08:30pm SSW 10-15 kts 13.9°c n/a 66% 0.0mm
03/08:00pm SSW 11-15 kts 13.9°c n/a 66% 0.0mm
03/07:30pm SSW 8-14 kts 14.0°c n/a 67% 0.0mm
03/07:00pm SSW 9-20 kts 14.1°c n/a 65% 0.0mm
03/06:30pm SSW 9-16 kts 14.4°c n/a 64% 0.0mm
03/06:00pm S 15-20 kts 14.7°c n/a 63% 0.0mm
03/05:37pm SSW 10-22 kts 15.3°c n/a 66% 0.0mm
03/05:30pm SSW 7-10 kts 14.6°c n/a 59% 0.0mm
03/05:00pm SSW 8-13 kts 14.9°c n/a 56% 0.0mm
03/04:30pm SSW 11-17 kts 15.3°c n/a 55% 0.0mm
03/04:00pm S 16-20 kts 15.7°c n/a 54% 0.0mm
03/03:30pm S 14-19 kts 16.2°c n/a 49% 0.0mm
03/03:00pm S 15-19 kts 16.3°c n/a 49% 0.0mm
03/02:30pm S 16-21 kts 16.4°c n/a 47% 0.0mm
03/02:00pm S 19-26 kts 16.4°c n/a 42% 0.0mm
03/01:30pm SSE 20-27 kts 16.3°c n/a 50% 0.0mm
03/01:14pm SSE 19-29 kts 16.3°c n/a 47% 0.0mm
03/01:00pm SSE 19-26 kts 16.3°c n/a 44% 0.0mm
03/12:38pm S 19-30 kts 16.7°c n/a 40% 0.0mm
03/12:30pm SSW 17-25 kts 16.9°c n/a 39% 0.0mm
03/12:00pm SSW 14-22 kts 17.1°c n/a 42% 0.0mm
03/11:30am SSW 15-21 kts 16.7°c n/a 40% 0.0mm
03/11:00am SW 15-23 kts 16.5°c n/a 41% 0.0mm
03/10:30am SSW 16-23 kts 16.2°c n/a 44% 0.0mm
03/10:00am SSW 20-30 kts 16.3°c n/a 43% 0.0mm
03/09:52am SSW 18-29 kts 16.4°c n/a 43% 0.0mm
03/09:30am SSW 13-20 kts 16.2°c n/a 47% 0.0mm
03/09:00am WSW 6-11 kts 15.0°c n/a 50% 0.0mm
03/08:30am W 5-15 kts 15.1°c n/a 46% 0.0mm
03/08:00am WSW 9-13 kts 14.1°c n/a 50% 0.0mm
03/07:30am WSW 8-16 kts 13.4°c n/a 53% 0.0mm
03/07:00am WNW 6-12 kts 12.5°c n/a 56% 0.0mm
03/06:30am WNW 6-10 kts 12.5°c n/a 56% 0.0mm
03/06:00am WNW 8-12 kts 12.9°c n/a 54% 0.0mm
03/05:30am W 10-16 kts 12.7°c n/a 55% 0.0mm
03/05:00am W 13-22 kts 12.8°c n/a 55% 0.0mm
03/04:30am W 12-21 kts 12.8°c n/a 55% 0.0mm
03/04:00am W 14-20 kts 12.8°c n/a 55% 0.0mm
03/03:30am WSW 15-22 kts 12.9°c n/a 54% 0.0mm
03/03:00am WSW 18-25 kts 13.0°c n/a 54% 0.0mm
03/02:30am WSW 20-29 kts 12.9°c n/a 54% 0.0mm
03/02:04am WSW 21-31 kts 13.0°c n/a 54% 0.0mm
03/02:00am WSW 22-31 kts 13.1°c n/a 54% 0.0mm
03/01:46am WSW 23-33 kts 13.0°c n/a 55% 0.0mm
03/01:30am WSW 19-28 kts 13.0°c n/a 55% 0.0mm
03/01:18am WSW 21-31 kts 12.9°c n/a 55% 0.0mm
03/01:00am WSW 20-28 kts 12.9°c n/a 55% 0.0mm
03/12:42am WSW 19-31 kts 12.8°c n/a 54% 0.0mm
03/12:30am WSW 19-26 kts 12.8°c n/a 54% 0.0mm
03/12:00am WSW 18-28 kts 12.6°c n/a 55% 0.0mm